DW7394 Weather Reports


time (UTC)temp
F
wind
direction
speed
knots
gust
knots
rain 1hr
in
rain 24hr
in
rain mn
in
humidity
%
barometer
mb
20260508085537 45 212 7.0 15.6 0.00 0.00 0.00 75 1011.9
20260508085040 45 218 4.3 12.2 0.00 0.00 0.00 75 1011.9
20260508084537 45 217 6.1 12.2 0.00 0.00 0.00 75 1011.9
20260508084036 45 163 7.0 12.2 0.00 0.00 0.00 75 1011.9
20260508083535 45 217 5.2 9.6 0.00 0.00 0.00 75 1011.9
20260508083039 45 203 6.1 11.3 0.00 0.00 0.00 75 1011.9
20260508082535 46 218 5.2 11.3 0.00 0.00 0.00 74 1012.0
20260508082035 46 236 7.0 10.4 0.00 0.00 0.00 74 1011.9
20260508081534 46 178 4.3 10.4 0.00 0.00 0.00 74 1012.0
20260508081032 46 189 5.2 10.4 0.00 0.00 0.00 74 1012.0
20260508080532 46 204 6.1 13.0 0.00 0.00 0.00 73 1012.0
20260508080032 46 209 4.3 15.6 0.00 0.00 0.00 73 1012.0
20260508075531 46 250 7.8 15.6 0.00 0.00 0.00 73 1012.0
20260508075032 46 224 6.1 19.1 0.00 0.00 0.00 72 1012.0
20260508074530 47 214 5.2 19.1 0.00 0.00 0.00 72 1012.0
20260508074029 47 213 8.7 19.1 0.00 0.00 0.00 72 1012.0
20260508073528 47 213 7.0 15.6 0.00 0.00 0.00 71 1012.0
20260508073033 47 221 5.2 17.4 0.00 0.00 0.00 71 1012.1
20260508072527 47 205 7.0 20.0 0.00 0.00 0.00 70 1012.1
20260508072026 47 199 9.6 20.0 0.00 0.00 0.00 70 1012.1
20260508071532 47 223 6.1 16.5 0.00 0.00 0.00 70 1012.1
20260508071027 47 210 7.0 20.0 0.00 0.00 0.00 69 1012.1
20260508070526 47 264 9.6 20.0 0.00 0.00 0.00 69 1012.1
20260508070024 47 255 8.7 19.1 0.00 0.00 0.00 69 1012.1
20260508065522 47 233 10.4 19.1 0.00 0.00 0.00 68 1012.1
20260508065022 47 211 5.2 12.2 0.00 0.00 0.00 68 1012.0
20260508064531 47 214 5.2 14.8 0.00 0.00 0.00 68 1012.0
20260508064022 47 227 7.0 14.8 0.00 0.00 0.00 67 1012.0
20260508063522 47 232 6.1 13.0 0.00 0.00 0.00 67 1012.0
20260508063020 47 220 6.1 13.0 0.00 0.00 0.00 67 1012.1
20260508062523 47 227 4.3 9.6 0.00 0.00 0.00 68 1012.2
20260508062019 47 233 3.5 9.6 0.00 0.00 0.00 67 1012.2
20260508061519 47 195 4.3 10.4 0.00 0.00 0.00 68 1012.2
20260508061019 47 218 6.1 10.4 0.00 0.00 0.00 68 1012.2
20260508060523 47 218 3.5 10.4 0.00 0.00 0.00 68 1012.3
20260508060019 47 222 5.2 10.4 0.00 0.00 0.00 68 1012.3
20260508055517 47 222 5.2 10.4 0.00 0.00 0.00 68 1012.3
20260508055016 47 192 4.3 7.8 0.00 0.00 0.00 68 1012.4
20260508054516 47 248 3.5 7.8 0.00 0.00 0.00 68 1012.5
20260508054016 47 233 4.3 8.7 0.00 0.00 0.00 68 1012.5
20260508053514 47 250 4.3 9.6 0.00 0.00 0.00 68 1012.6
20260508053014 47 236 2.6 9.6 0.00 0.00 0.00 68 1012.6
20260508052513 47 195 4.3 9.6 0.00 0.00 0.00 68 1012.7
20260508052018 47 218 2.6 8.7 0.00 0.00 0.00 68 1012.7
20260508051512 46 214 4.3 8.7 0.00 0.00 0.00 68 1012.8
20260508051011 46 203 4.3 7.8 0.00 0.00 0.00 68 1012.8
20260508050511 46 224 3.5 7.0 0.00 0.00 0.00 68 1012.8
20260508050013 46 224 3.5 7.0 0.00 0.00 0.00 68 1012.8
20260508045510 46 290 3.5 7.0 0.00 0.00 0.00 68 1012.8
20260508045010 46 204 3.5 7.8 0.00 0.00 0.00 68 1012.9
20260508044510 47 221 4.3 10.4 0.00 0.00 0.00 68 1012.9
20260508044009 46 208 4.3 10.4 0.00 0.00 0.00 68 1012.9
20260508043509 46 254 4.3 12.2 0.00 0.00 0.00 68 1012.9
20260508043008 46 208 5.2 12.2 0.00 0.00 0.00 68 1012.9
20260508042507 46 229 3.5 11.3 0.00 0.00 0.00 68 1012.9
20260508042011 46 224 5.2 11.3 0.00 0.00 0.00 67 1012.9
20260508041509 46 216 3.5 10.4 0.00 0.00 0.00 67 1012.9
20260508041004 46 222 6.1 10.4 0.00 0.00 0.00 67 1012.8
20260508040502 46 236 4.3 8.7 0.00 0.00 0.00 66 1012.8
20260508040001 46 190 2.6 10.4 0.00 0.00 0.00 66 1012.8
20260508035502 46 179 6.1 10.4 0.00 0.00 0.00 66 1012.9
20260508035001 46 224 5.2 10.4 0.00 0.00 0.00 66 1013.0
20260508034500 46 253 5.2 10.4 0.00 0.00 0.00 66 1013.0
20260508034001 45 208 4.3 11.3 0.00 0.00 0.00 66 1013.0
20260508033501 45 202 6.1 11.3 0.00 0.00 0.00 65 1013.0
20260508033107 45 211 5.2 11.3 0.00 0.00 0.00 65 1013.0
20260508032600 44 209 5.2 11.3 0.00 0.00 0.00 65 1013.0
20260508032502 44 239 5.2 11.3 0.00 0.00 0.00 65 1013.0
20260508032059 44 221 4.3 8.7 0.00 0.00 0.00 65 1013.0
20260508031606 44 197 3.5 7.8 0.00 0.00 0.00 65 1012.9
20260508031059 44 218 2.6 7.0 0.00 0.00 0.00 65 1013.0
20260508030559 43 223 2.6 7.0 0.00 0.00 0.00 66 1012.9
20260508030502 43 218 2.6 7.0 0.00 0.00 0.00 66 1012.9
20260508030111 43 173 1.7 5.2 0.00 0.00 0.00 65 1012.9
20260508025558 43 173 2.6 6.1 0.00 0.00 0.00 66 1012.9
20260508025058 43 209 2.6 6.1 0.00 0.00 0.00 66 1013.0
20260508024603 43 220 2.6 6.1 0.00 0.00 0.00 66 1013.0
20260508024058 43 213 2.6 4.3 0.00 0.00 0.00 66 1012.9
20260508023601 43 215 1.7 3.5 0.00 0.00 0.00 66 1012.8
20260508023059 43 164 1.7 3.5 0.00 0.00 0.00 66 1012.8
20260508022558 44 173 0.9 3.5 0.00 0.00 0.00 65 1012.9
20260508022058 44 205 0.9 3.5 0.00 0.00 0.00 65 1012.8
20260508021558 44 214 1.7 3.5 0.00 0.00 0.00 65 1012.9
20260508021058 44 204 1.7 3.5 0.00 0.00 0.00 64 1012.9
20260508020557 44 192 1.7 3.5 0.00 0.00 0.00 64 1012.8
20260508020106 45 208 1.7 2.6 0.00 0.00 0.00 64 1012.8
20260508015556 45 196 0.9 2.6 0.00 0.00 0.00 63 1012.8
20260508015056 45 218 1.7 3.5 0.00 0.00 0.00 62 1012.8
20260508014556 46 224 1.7 3.5 0.00 0.00 0.00 61 1012.8
20260508014059 46 204 1.7 3.5 0.00 0.00 0.00 61 1012.7
20260508013555 46 196 1.7 3.5 0.00 0.00 0.00 60 1012.6
20260508013056 47 196 1.7 3.5 0.00 0.00 0.00 59 1012.6
20260508012557 47 197 1.7 3.5 0.00 0.00 0.00 58 1012.5
20260508012057 47 173 0.9 3.5 0.00 0.00 0.00 58 1012.6
20260508011555 48 185 1.7 3.5 0.00 0.00 0.00 57 1012.5
20260508011054 48 214 1.7 3.5 0.00 0.00 0.00 56 1012.5
20260508010554 49 214 1.7 3.5 0.00 0.00 0.00 55 1012.5
20260508005558 49 218 0.0 4.3 0.00 0.00 0.00 53 1012.5
20260508005055 50 355 0.0 4.3 0.00 0.00 0.00 53 1012.4
20260508004553 50 229 0.9 3.5 0.00 0.00 0.00 52 1012.5
20260508004053 50 84 0.9 4.3 0.00 0.00 0.00 52 1012.5
20260508003553 50 247 0.9 4.3 0.00 0.00 0.00 51 1012.4
20260508003102 50 264 0.0 9.6 0.00 0.00 0.00 51 1012.5
20260508002553 51 301 0.9 9.6 0.00 0.00 0.00 50 1012.4
20260508002053 51 218 2.6 0.0 0.00 0.00 0.00 49 1012.4
20260508001556 51 339 1.7 7.8 0.00 0.00 0.00 49 1012.3
20260508001052 51 319 2.6 7.8 0.00 0.00 0.00 49 1012.3
20260508000551 52 317 0.9 7.8 0.00 0.00 0.00 49 1012.3
20260508000052 52 264 0.9 8.7 0.00 0.00 0.00 49 1012.3
20260507235552 52 84 2.6 11.3 0.00 0.00 0.00 49 1012.2
20260507235050 52 331 2.6 11.3 0.00 0.00 0.00 48 1012.2
20260507234551 52 298 2.6 10.4 0.00 0.00 0.00 48 1012.1
20260507234052 53 309 3.5 10.4 0.00 0.00 0.00 48 1012.1
20260507233550 53 295 2.6 7.8 0.00 0.00 0.00 48 1012.1
20260507233051 53 285 2.6 7.8 0.00 0.00 0.00 47 1012.1
20260507232550 53 278 2.6 7.0 0.00 0.00 0.00 48 1012.1
20260507232049 53 294 1.7 7.0 0.00 0.00 0.00 46 1012.1
20260507231550 53 319 3.5 10.4 0.00 0.00 0.00 46 1012.1
20260507231050 53 243 3.5 12.2 0.00 0.00 0.00 48 1012.2
20260507230549 53 250 3.5 12.2 0.00 0.00 0.00 48 1012.2
20260507230106 54 276 3.5 12.2 0.00 0.00 0.00 47 1012.3
20260507225548 54 326 3.5 13.9 0.00 0.00 0.00 48 1012.3
20260507225048 54 303 5.2 13.9 0.00 0.00 0.00 48 1012.3
20260507224549 54 323 4.3 15.6 0.00 0.00 0.00 48 1012.3
20260507224048 54 335 6.1 15.6 0.00 0.00 0.00 47 1012.2
20260507223546 54 281 4.3 12.2 0.00 0.00 0.00 47 1012.3
20260507223132 54 290 4.3 11.3 0.00 0.00 0.00 48 1012.3
20260507222546 54 248 3.5 9.6 0.00 0.00 0.00 47 1012.3
20260507222046 53 323 3.5 11.3 0.00 0.00 0.00 48 1012.4
20260507221546 53 51 3.5 14.8 0.00 0.00 0.00 47 1012.4
20260507221046 53 247 2.6 20.0 0.00 0.00 0.00 47 1012.4
20260507220546 53 337 3.5 20.0 0.00 0.00 0.00 46 1012.4
20260507220044 53 356 6.1 16.5 0.00 0.00 0.00 47 1012.4
20260507215544 53 292 4.3 15.6 0.00 0.00 0.00 46 1012.3
20260507215043 53 300 7.0 25.2 0.00 0.00 0.00 46 1012.3
20260507214552 53 300 7.8 25.2 0.00 0.00 0.00 47 1012.1
20260507214042 54 221 5.2 14.8 0.00 0.00 0.00 49 1012.2
20260507213541 54 305 6.1 14.8 0.00 0.00 0.00 50 1012.1
20260507213042 54 311 3.5 13.9 0.00 0.00 0.00 53 1012.1
20260507212541 54 313 2.6 14.8 0.00 0.00 0.00 54 1012.1
20260507212040 54 264 5.2 23.5 0.00 0.00 0.00 55 1012.1
20260507211542 54 264 4.3 23.5 0.00 0.00 0.00 56 1012.1
20260507211038 53 264 3.5 13.9 0.00 0.00 0.00 56 1012.0
20260507210538 53 325 3.5 12.2 0.00 0.00 0.00 58 1011.8
20260507210042 52 247 3.5 11.3 0.00 0.00 0.00 61 1011.8
20260507205538 52 313 4.3 10.4 0.00 0.00 0.00 61 1011.8
20260507205036 51 301 1.7 7.8 0.00 0.00 0.00 60 1011.7
20260507204541 51 236 3.5 14.8 0.00 0.00 0.00 59 1011.7
20260507204036 52 301 2.6 14.8 0.00 0.00 0.00 60 1011.8
20260507203537 52 245 5.2 13.9 0.00 0.00 0.00 59 1011.8
20260507203040 52 326 4.3 13.9 0.00 0.00 0.00 59 1011.9
20260507202536 52 297 4.3 10.4 0.00 0.00 0.00 60 1011.7
20260507202038 51 286 2.6 7.8 0.00 0.00 0.00 62 1011.7
20260507201540 51 333 1.7 11.3 0.00 0.00 0.00 62 1011.7
20260507201034 52 331 3.5 11.3 0.00 0.00 0.00 60 1011.6
20260507200534 52 9 6.1 14.8 0.00 0.00 0.00 60 1011.5
20260507200049 52 351 4.3 13.9 0.00 0.00 0.00 59 1011.5
20260507195533 53 264 3.5 13.9 0.00 0.01 0.00 60 1011.5
20260507195034 53 336 7.0 13.9 0.00 0.01 0.00 60 1011.6
20260507194532 53 344 4.3 7.8 0.00 0.01 0.00 60 1011.6
20260507194031 53 356 0.9 12.2 0.00 0.01 0.00 60 1011.6
20260507193531 53 303 3.5 12.2 0.00 0.01 0.00 60 1011.8
20260507193042 53 311 2.6 9.6 0.00 0.01 0.00 60 1011.7
20260507192530 53 319 1.7 9.6 0.00 0.01 0.00 60 1011.8
20260507192030 53 312 2.6 7.0 0.00 0.01 0.00 60 1011.8
20260507191529 53 347 3.5 13.9 0.00 0.01 0.00 60 1011.8
20260507191027 53 336 7.0 13.9 0.00 0.01 0.00 59 1011.9
20260507190527 53 356 3.5 11.3 0.00 0.01 0.00 60 1012.0
20260507190035 52 304 3.5 12.2 0.00 0.01 0.00 59 1012.0
20260507185525 52 310 6.1 12.2 0.00 0.01 0.00 58 1012.0
20260507185026 53 359 7.0 11.3 0.00 0.01 0.00 58 1012.0
20260507184525 53 309 2.6 6.1 0.00 0.01 0.00 59 1012.0
20260507184025 52 307 2.6 10.4 0.00 0.01 0.00 59 1012.0
20260507183523 52 322 3.5 10.4 0.00 0.01 0.00 58 1012.0
20260507183035 52 309 3.5 13.0 0.00 0.01 0.00 58 1012.1
20260507182523 52 344 7.0 13.0 0.00 0.01 0.00 57 1012.1
20260507182023 52 6 6.1 13.0 0.00 0.01 0.00 56 1012.1
20260507181523 53 334 1.7 12.2 0.00 0.01 0.00 57 1012.1
20260507181024 53 313 5.2 12.2 0.00 0.01 0.00 55 1012.1
20260507180525 53 1 3.5 8.7 0.00 0.01 0.00 56 1012.1
20260507180022 53 319 2.6 12.2 0.00 0.01 0.00 56 1012.0
20260507175520 53 295 4.3 12.2 0.00 0.01 0.00 55 1012.1
20260507175020 53 334 4.3 12.2 0.00 0.01 0.00 55 1012.0
20260507174520 53 344 6.1 14.8 0.00 0.01 0.00 53 1012.1
20260507174020 54 8 2.6 14.8 0.00 0.01 0.00 55 1012.2
20260507173519 54 15 4.3 11.3 0.00 0.01 0.00 54 1012.1
20260507173020 54 333 3.5 14.8 0.00 0.01 0.00 54 1012.2
20260507172520 54 316 6.1 14.8 0.00 0.01 0.00 55 1012.2
20260507172016 54 345 7.0 13.0 0.00 0.01 0.00 55 1012.3
20260507171515 54 311 2.6 12.2 0.00 0.01 0.00 55 1012.2
20260507171015 54 323 5.2 9.6 0.00 0.01 0.00 56 1012.2
20260507170514 54 8 3.5 7.8 0.00 0.01 0.00 55 1012.3
20260507170013 54 332 4.3 13.0 0.00 0.01 0.00 55 1012.4
20260507165513 54 351 5.2 13.0 0.00 0.01 0.00 59 1012.3
20260507165013 53 345 2.6 7.8 0.00 0.01 0.00 60 1012.3
20260507164512 53 347 2.6 7.8 0.00 0.01 0.00 58 1012.3
20260507164015 53 344 3.5 7.0 0.00 0.01 0.00 60 1012.3
20260507163512 53 345 2.6 10.4 0.00 0.01 0.00 58 1012.4
20260507163012 53 302 5.2 13.0 0.00 0.01 0.00 58 1012.3
20260507162512 54 299 6.1 13.0 0.00 0.01 0.00 59 1012.3
20260507162014 54 264 1.7 6.1 0.00 0.01 0.00 60 1012.4
20260507161512 54 297 1.7 9.6 0.00 0.01 0.00 58 1012.4
20260507161010 55 283 4.3 9.6 0.00 0.01 0.00 57 1012.4
20260507160510 55 315 3.5 11.3 0.00 0.01 0.00 58 1012.4
20260507160013 55 301 4.3 11.3 0.00 0.01 0.00 57 1012.3
20260507155509 55 335 3.5 7.8 0.00 0.01 0.00 54 1012.3
20260507155011 56 342 1.7 8.7 0.00 0.01 0.00 51 1012.3
20260507154508 56 328 5.2 9.6 0.00 0.01 0.00 51 1012.3
20260507154009 56 163 4.3 13.0 0.00 0.01 0.00 55 1012.3
20260507153508 55 235 6.1 13.0 0.00 0.01 0.00 59 1012.3
20260507153005 54 232 5.2 11.3 0.00 0.01 0.00 54 1012.4
20260507152505 54 332 1.7 8.7 0.00 0.01 0.00 54 1012.4
20260507152004 54 236 2.6 9.6 0.00 0.01 0.00 55 1012.4
20260507151504 54 236 2.6 9.6 0.00 0.01 0.00 54 1012.5
20260507151002 55 248 1.7 12.2 0.00 0.01 0.00 55 1012.5
20260507150502 55 278 2.6 12.2 0.00 0.01 0.00 55 1012.5
20260507150110 55 239 3.5 12.2 0.00 0.01 0.00 55 1012.5
20260507145601 54 222 2.6 7.8 0.00 0.01 0.00 56 1012.4
20260507145104 55 303 1.7 8.7 0.00 0.01 0.00 58 1012.4
20260507144559 55 324 2.6 8.7 0.00 0.01 0.00 56 1012.5
20260507144058 55 316 1.7 7.0 0.00 0.01 0.00 56 1012.5
20260507143556 54 250 3.5 7.0 0.00 0.01 0.00 57 1012.4
20260507143100 54 51 1.7 9.6 0.00 0.01 0.00 57 1012.4
20260507142555 54 290 3.5 10.4 0.00 0.01 0.00 56 1012.5
20260507142053 54 208 3.5 10.4 0.00 0.01 0.00 60 1012.5
20260507141553 53 223 3.5 9.6 0.00 0.01 0.00 61 1012.6
20260507141050 53 8 1.7 5.2 0.00 0.01 0.00 62 1012.6
20260507140550 52 112 1.7 9.6 0.00 0.01 0.00 64 1012.7
20260507140049 52 344 5.2 9.6 0.00 0.01 0.00 66 1012.7
20260507135551 51 248 3.5 7.8 0.00 0.01 0.00 66 1012.9
20260507135047 51 290 1.7 7.0 0.00 0.01 0.00 68 1012.9
20260507134547 51 345 1.7 6.1 0.00 0.01 0.00 68 1012.9
20260507134043 50 20 1.7 5.2 0.00 0.01 0.00 68 1012.9
20260507133543 50 319 1.7 7.8 0.00 0.01 0.00 69 1013.0
20260507133042 50 236 1.7 8.7 0.00 0.01 0.00 71 1013.0
20260507132540 49 236 4.3 8.7 0.00 0.01 0.00 70 1013.1
20260507132038 49 271 4.3 8.7 0.00 0.01 0.00 70 1013.1
20260507131538 48 198 0.9 9.6 0.00 0.01 0.00 70 1013.1
20260507131037 48 257 4.3 9.6 0.00 0.01 0.00 70 1013.1
20260507130635 48 255 3.5 8.7 0.00 0.01 0.00 70 1013.1
20260507130054 47 208 1.7 6.1 0.00 0.01 0.00 70 1013.1
20260507125535 47 130 0.9 5.2 0.00 0.01 0.00 69 1013.1
20260507125033 47 236 1.7 7.0 0.00 0.01 0.00 69 1013.1
20260507124533 47 250 2.6 9.6 0.00 0.01 0.00 70 1013.1
20260507124032 47 239 3.5 9.6 0.00 0.01 0.00 71 1013.1
20260507123531 47 250 5.2 9.6 0.00 0.01 0.00 72 1013.2
20260507123033 46 241 2.6 9.6 0.00 0.01 0.00 72 1013.0
20260507122529 46 239 3.5 10.4 0.00 0.01 0.00 73 1013.1
20260507122028 46 190 7.0 10.4 0.00 0.01 0.00 73 1013.0
20260507121527 46 231 6.1 10.4 0.00 0.01 0.00 73 1012.9
20260507121025 45 309 2.6 7.8 0.00 0.01 0.00 73 1013.0
20260507120533 45 240 3.5 9.6 0.00 0.01 0.00 74 1013.0
20260507120033 45 211 6.1 11.3 0.00 0.01 0.00 74 1012.7
20260507115522 45 205 5.2 11.3 0.00 0.01 0.00 74 1012.7
20260507115024 44 186 5.2 13.0 0.00 0.01 0.00 74 1012.8
20260507114521 44 243 7.8 13.0 0.00 0.01 0.00 75 1012.8
20260507114020 44 178 5.2 12.2 0.00 0.01 0.00 75 1012.7
20260507113520 43 215 4.3 9.6 0.00 0.01 0.00 75 1012.8
20260507113019 43 239 5.2 9.6 0.00 0.01 0.00 75 1012.8
20260507112518 43 208 4.3 7.8 0.00 0.01 0.00 75 1012.8
20260507112016 43 222 4.3 9.6 0.00 0.01 0.00 75 1012.7
20260507111518 43 217 5.2 9.6 0.00 0.01 0.00 75 1012.7
20260507111015 43 221 5.2 8.7 0.00 0.01 0.00 75 1012.7
20260507110516 43 229 4.3 0.0 0.00 0.00 0.00 75 1012.6
20260507110015 43 220 4.3 7.8 0.00 0.01 0.00 75 1012.6
20260507105513 42 221 2.6 6.1 0.00 0.01 0.00 75 1012.6
20260507105013 42 229 3.5 7.0 0.00 0.01 0.00 74 1012.6
20260507104515 42 210 3.5 7.0 0.00 0.01 0.00 74 1012.6
20260507104013 42 236 3.5 8.7 0.00 0.01 0.00 74 1012.5
20260507103512 42 214 3.5 8.7 0.00 0.01 0.00 74 1012.4
20260507103011 43 211 3.5 7.8 0.00 0.01 0.00 74 1012.4
20260507102510 43 208 3.5 7.8 0.00 0.01 0.00 74 1012.4
20260507102010 43 192 4.3 7.8 0.00 0.01 0.00 74 1012.3
20260507101510 43 190 3.5 7.8 0.00 0.01 0.00 74 1012.4
20260507101014 43 186 3.5 7.8 0.00 0.01 0.00 73 1012.4
20260507100509 43 212 3.5 7.0 0.00 0.01 0.00 73 1012.4
20260507100009 43 203 3.5 7.0 0.00 0.01 0.00 73 1012.4
20260507095509 43 190 3.5 6.1 0.00 0.04 0.00 73 1012.4
20260507095009 43 221 3.5 7.0 0.00 0.04 0.00 73 1012.3
20260507094508 43 213 3.5 7.0 0.00 0.04 0.00 72 1012.4
20260507094010 43 238 3.5 7.8 0.00 0.04 0.00 72 1012.4
20260507093508 43 250 3.5 11.3 0.00 0.04 0.00 72 1012.4
20260507093008 43 257 4.3 11.3 0.00 0.04 0.00 72 1012.4
20260507092512 43 218 4.3 9.6 0.00 0.04 0.00 72 1012.4
20260507092012 43 228 4.3 9.6 0.00 0.04 0.00 72 1012.3
20260507091508 43 218 4.3 9.6 0.00 0.04 0.00 72 1012.3
20260507091005 43 199 4.3 9.6 0.00 0.04 0.00 72 1012.4
20260507090510 43 235 4.3 10.4 0.00 0.04 0.00 72 1012.5
20260507090006 43 202 6.1 10.4 0.00 0.04 0.00 72 1012.5